Time,TemperatureF,DewpointF,PressureIn,WindDirection,WindDirectionDegrees,WindSpeedMPH,WindSpeedGustMPH,Humidity,HourlyPrecipIn,Conditions,Clouds,dailyrainin,SoftwareType,DateUTC
2017-07-24 00:04:00,67.1,65.0,29.80,WSW,248,0.0,-999.0,93,0.00,,,0.00,,2017-07-24 04:04:00,
2017-07-24 00:09:00,67.1,65.0,29.82,WNW,293,0.0,-999.0,93,0.00,,,0.00,,2017-07-24 04:09:00,
2017-07-24 00:15:00,67.1,65.0,29.81,East,90,0.0,-999.0,93,0.00,,,0.00,,2017-07-24 04:15:00,
2017-07-24 00:20:00,67.1,65.0,29.82,SE,135,0.0,-999.0,93,0.00,,,0.00,,2017-07-24 04:20:00,
2017-07-24 00:25:00,67.1,65.0,29.80,SSE,158,0.0,-999.0,93,0.00,,,0.00,,2017-07-24 04:25:00,
2017-07-24 00:31:00,67.3,65.0,29.80,SSW,203,0.0,-999.0,93,0.00,,,0.00,,2017-07-24 04:31:00,
2017-07-24 00:36:00,67.3,65.0,29.81,SSW,203,0.0,-999.0,93,0.00,,,0.00,,2017-07-24 04:36:00,
2017-07-24 00:42:00,67.3,65.0,29.80,South,180,0.0,-999.0,93,0.00,,,0.00,,2017-07-24 04:42:00,
2017-07-24 00:48:00,67.3,65.0,29.81,SSW,203,0.0,-999.0,93,0.00,,,0.00,,2017-07-24 04:48:00,
2017-07-24 00:53:00,67.3,65.0,29.83,SSW,203,0.0,-999.0,93,0.00,,,0.00,,2017-07-24 04:53:00,
2017-07-24 00:58:00,67.3,65.0,29.81,ESE,113,0.0,-999.0,93,0.00,,,0.00,,2017-07-24 04:58:00,
2017-07-24 01:04:00,67.3,65.0,29.81,SSW,203,0.0,-999.0,93,0.00,,,0.00,,2017-07-24 05:04:00,
2017-07-24 01:09:00,67.3,65.0,29.81,SSW,203,0.0,-999.0,93,0.00,,,0.00,,2017-07-24 05:09:00,
2017-07-24 01:15:00,67.3,65.0,29.82,South,180,0.0,-999.0,93,0.00,,,0.00,,2017-07-24 05:15:00,
2017-07-24 01:20:00,67.3,65.0,29.83,South,180,0.0,-999.0,93,0.00,,,0.00,,2017-07-24 05:20:00,
2017-07-24 01:25:00,67.5,65.0,29.81,WSW,248,0.0,-999.0,93,0.00,,,0.00,,2017-07-24 05:25:00,
2017-07-24 01:31:00,67.5,65.0,29.82,SW,225,0.0,-999.0,93,0.00,,,0.00,,2017-07-24 05:31:00,
2017-07-24 01:36:00,67.5,65.0,29.82,SSW,203,0.0,-999.0,93,0.00,,,0.00,,2017-07-24 05:36:00,
2017-07-24 01:42:00,67.5,65.0,29.82,SSW,203,0.0,-999.0,93,0.00,,,0.00,,2017-07-24 05:42:00,
2017-07-24 01:47:00,67.5,65.0,29.82,SW,225,0.0,-999.0,93,0.00,,,0.00,,2017-07-24 05:47:00,
2017-07-24 01:52:00,67.3,65.0,29.81,SSW,203,0.0,-999.0,93,0.00,,,0.00,,2017-07-24 05:52:00,
2017-07-24 01:58:00,67.3,65.0,29.82,SSW,203,0.0,-999.0,93,0.00,,,0.00,,2017-07-24 05:58:00,
2017-07-24 02:03:00,67.3,65.0,29.81,SSE,158,0.0,-999.0,93,0.00,,,0.00,,2017-07-24 06:03:00,
2017-07-24 02:09:00,67.3,65.0,29.81,SW,225,0.0,-999.0,93,0.00,,,0.00,,2017-07-24 06:09:00,
2017-07-24 02:14:00,67.3,65.0,29.81,SSE,158,0.0,-999.0,93,0.00,,,0.00,,2017-07-24 06:14:00,
2017-07-24 02:19:00,67.3,65.0,29.80,SSW,203,3.0,-999.0,93,0.00,,,0.00,,2017-07-24 06:19:00,
2017-07-24 02:25:00,67.3,65.0,29.83,SSW,203,3.0,-999.0,95,0.00,,,0.00,,2017-07-24 06:25:00,
2017-07-24 02:30:00,67.3,65.0,29.81,SSW,203,1.0,-999.0,95,0.00,,,0.00,,2017-07-24 06:30:00,
2017-07-24 02:36:00,67.3,65.0,29.83,WSW,248,0.0,-999.0,95,0.00,,,0.00,,2017-07-24 06:36:00,
2017-07-24 02:41:00,67.3,65.0,29.81,SW,225,0.0,-999.0,95,0.00,,,0.00,,2017-07-24 06:41:00,
2017-07-24 02:46:00,67.3,65.0,29.82,SW,225,0.0,-999.0,95,0.00,,,0.00,,2017-07-24 06:46:00,
2017-07-24 02:52:00,67.3,65.0,29.81,SSW,203,3.0,-999.0,95,0.00,,,0.00,,2017-07-24 06:52:00,
2017-07-24 02:57:00,67.1,65.0,29.81,WNW,293,1.0,-999.0,95,0.00,,,0.00,,2017-07-24 06:57:00,
2017-07-24 03:03:00,67.1,65.0,29.81,South,180,2.0,-999.0,95,0.00,,,0.00,,2017-07-24 07:03:00,
2017-07-24 03:08:00,67.1,65.0,29.81,SW,225,2.0,-999.0,95,0.00,,,0.00,,2017-07-24 07:08:00,
2017-07-24 03:14:00,67.1,65.0,29.81,SSW,203,4.0,-999.0,95,0.00,,,0.00,,2017-07-24 07:14:00,
2017-07-24 03:19:00,66.9,65.0,29.82,WSW,248,0.0,-999.0,95,0.00,,,0.00,,2017-07-24 07:19:00,
2017-07-24 03:25:00,66.9,65.0,29.81,SSE,158,2.0,-999.0,95,0.00,,,0.00,,2017-07-24 07:25:00,
2017-07-24 03:30:00,66.9,65.0,29.80,West,270,0.0,-999.0,95,0.00,,,0.00,,2017-07-24 07:30:00,
2017-07-24 03:36:00,66.9,65.0,29.81,SW,225,0.0,-999.0,95,0.00,,,0.00,,2017-07-24 07:36:00,
2017-07-24 03:41:00,66.9,65.0,29.81,WNW,293,0.0,-999.0,95,0.00,,,0.00,,2017-07-24 07:41:00,
2017-07-24 03:46:00,66.9,65.0,29.82,SSW,203,0.0,-999.0,95,0.00,,,0.00,,2017-07-24 07:46:00,
2017-07-24 03:52:00,66.9,65.0,29.82,SSW,203,3.0,-999.0,95,0.00,,,0.00,,2017-07-24 07:52:00,
2017-07-24 03:57:00,66.6,65.0,29.81,SE,135,0.0,-999.0,95,0.00,,,0.00,,2017-07-24 07:57:00,
2017-07-24 04:03:00,66.5,65.0,29.79,SSW,203,2.0,-999.0,95,0.00,,,0.00,,2017-07-24 08:03:00,
2017-07-24 04:08:00,66.5,65.0,29.82,SSW,203,0.0,-999.0,95,0.00,,,0.00,,2017-07-24 08:08:00,
2017-07-24 04:13:00,66.5,65.0,29.81,WSW,248,0.0,-999.0,95,0.00,,,0.00,,2017-07-24 08:13:00,
2017-07-24 04:19:00,66.5,65.0,29.83,SW,225,0.0,-999.0,95,0.00,,,0.00,,2017-07-24 08:19:00,
2017-07-24 04:24:00,66.5,65.0,29.83,WSW,248,2.0,-999.0,95,0.00,,,0.00,,2017-07-24 08:24:00,
2017-07-24 04:30:00,66.5,65.0,29.82,SW,225,0.0,-999.0,95,0.00,,,0.00,,2017-07-24 08:30:00,
2017-07-24 04:35:00,66.5,65.0,29.82,SSW,203,1.0,-999.0,95,0.00,,,0.00,,2017-07-24 08:35:00,
2017-07-24 04:40:00,66.5,65.0,29.83,NNE,23,0.0,-999.0,95,0.00,,,0.00,,2017-07-24 08:40:00,
2017-07-24 04:46:00,66.4,64.0,29.82,SSW,203,0.0,-999.0,95,0.00,,,0.00,,2017-07-24 08:46:00,
2017-07-24 04:51:00,66.1,64.0,29.83,West,270,0.0,-999.0,95,0.00,,,0.00,,2017-07-24 08:51:00,
2017-07-24 04:56:00,66.1,64.0,29.83,NW,315,0.0,-999.0,95,0.00,,,0.00,,2017-07-24 08:56:00,
2017-07-24 05:02:00,65.9,64.0,29.82,SW,225,0.0,-999.0,95,0.00,,,0.00,,2017-07-24 09:02:00,
2017-07-24 05:07:00,65.8,64.0,29.83,South,180,0.0,-999.0,95,0.00,,,0.00,,2017-07-24 09:07:00,
2017-07-24 05:13:00,65.8,64.0,29.82,SE,135,0.0,-999.0,95,0.00,,,0.00,,2017-07-24 09:13:00,
2017-07-24 05:18:00,65.6,64.0,29.82,WNW,293,0.0,-999.0,95,0.00,,,0.00,,2017-07-24 09:18:00,
2017-07-24 05:23:00,65.5,64.0,29.83,SW,225,0.0,-999.0,95,0.00,,,0.00,,2017-07-24 09:23:00,
2017-07-24 05:29:00,65.5,64.0,29.85,SSW,203,1.0,-999.0,95,0.00,,,0.00,,2017-07-24 09:29:00,
2017-07-24 05:34:00,65.5,64.0,29.83,SSW,203,1.0,-999.0,95,0.00,,,0.00,,2017-07-24 09:34:00,
2017-07-24 05:40:00,65.5,64.0,29.83,ESE,113,0.0,-999.0,95,0.00,,,0.00,,2017-07-24 09:40:00,
2017-07-24 05:45:00,65.2,63.0,29.84,SSE,158,0.0,-999.0,95,0.00,,,0.00,,2017-07-24 09:45:00,
2017-07-24 05:50:00,65.2,63.0,29.85,WNW,293,0.0,-999.0,95,0.00,,,0.00,,2017-07-24 09:50:00,
2017-07-24 05:56:00,65.2,63.0,29.85,SSW,203,0.0,-999.0,95,0.00,,,0.00,,2017-07-24 09:56:00,
2017-07-24 06:01:00,65.2,63.0,29.84,SSE,158,0.0,-999.0,95,0.00,,,0.00,,2017-07-24 10:01:00,
2017-07-24 06:07:00,65.2,63.0,29.85,SSE,158,0.0,-999.0,95,0.00,,,0.00,,2017-07-24 10:07:00,
2017-07-24 06:12:00,65.2,63.0,29.84,SSW,203,0.0,-999.0,95,0.00,,,0.00,,2017-07-24 10:12:00,
2017-07-24 06:17:00,65.2,63.0,29.85,NE,45,0.0,-999.0,95,0.00,,,0.00,,2017-07-24 10:17:00,
2017-07-24 06:23:00,65.2,63.0,29.85,WSW,248,0.0,-999.0,95,0.00,,,0.00,,2017-07-24 10:23:00,
2017-07-24 06:28:00,65.2,63.0,29.86,West,270,0.0,-999.0,95,0.00,,,0.00,,2017-07-24 10:28:00,
2017-07-24 06:34:00,65.2,63.0,29.86,ESE,113,0.0,-999.0,95,0.00,,,0.00,,2017-07-24 10:34:00,
2017-07-24 06:39:00,65.2,63.0,29.85,SW,225,0.0,-999.0,95,0.00,,,0.00,,2017-07-24 10:39:00,
2017-07-24 06:44:00,65.2,63.0,29.86,WSW,248,0.0,-999.0,95,0.00,,,0.00,,2017-07-24 10:44:00,
2017-07-24 06:50:00,65.5,64.0,29.86,NNW,338,0.0,-999.0,95,0.00,,,0.00,,2017-07-24 10:50:00,
2017-07-24 06:55:00,65.5,64.0,29.86,NNE,23,0.0,-999.0,95,0.00,,,0.00,,2017-07-24 10:55:00,
2017-07-24 07:01:00,65.6,64.0,29.86,SW,225,0.0,-999.0,95,0.00,,,0.00,,2017-07-24 11:01:00,
2017-07-24 07:06:00,65.8,64.0,29.87,ESE,113,0.0,-999.0,95,0.00,,,0.00,,2017-07-24 11:06:00,
2017-07-24 07:11:00,65.9,64.0,29.86,WNW,293,0.0,-999.0,95,0.00,,,0.00,,2017-07-24 11:11:00,
2017-07-24 07:12:00,65.9,64.0,29.86,South,180,0.0,-999.0,95,0.00,,,0.00,,2017-07-24 11:12:00,
2017-07-24 07:17:00,65.9,64.0,29.86,SSE,158,0.0,-999.0,95,0.00,,,0.00,,2017-07-24 11:17:00,